Weather History for KMRH - March, 2012

Change the Weather History Date:

Sunday, March 18, 2012

  Actual Average Record
Temperature  
Mean Temperature 66 °F -  
Max Temperature 73 °F 62 °F 82 °F (1963)
Min Temperature 59 °F 41 °F 26 °F (1976)
Growing Degree Days 16 (Base 50)    
Moisture  
Dew Point 59 °F    
Average Humidity 90    
Maximum Humidity 100    
Minimum Humidity 68    
Precipitation  
Precipitation 0.00 in - - ()
Sea Level Pressure  
Sea Level Pressure 30.26 in    
Wind  
Wind Speed 5 mph (NNE)    
Max Wind Speed 9 mph    
Max Gust Speed -    
Visibility 4 miles    
Events Fog    
Averages and records for this station are not official NWS values.
T = Trace of Precipitation, MM = Missing Value Source: NWS Daily Summary

Daily Weather History Graph

Daily Weather History Graph

Search for Another Location

Airport or City:

Trip Planner

Search our weather history database for the weather conditions in past years. The results will help you decide how hot, cold, wet, or windy it might be!

Date:

Astronomy

Mar. 18, 2012 Rise Set
Actual Time 7:12 AM EDT 7:17 PM EDT
Civil Twilight 6:47 AM EDT 7:42 PM EDT
Nautical Twilight 6:17 AM EDT 8:11 PM EDT
Astronomical Twilight 5:48 AM EDT 8:41 PM EDT
Moon 4:41 AM EDT (3/18) 3:49 PM EDT (3/18)
Length of Visible Light 12h 55m
Length of Day
12h 04m
Waning Crescent, 15% of the Moon is Illuminated
Mar 18
Waning Crescent
Mar 22
New
Mar 30
First Quarter
Apr 6
Full
Apr 13
Last Quarter

Hourly Weather History & Observations

Time (EDT) Temp. Dew Point Humidity Pressure Visibility Wind Dir Wind Speed Gust Speed Precip Events Conditions
12:08 AM 60.8 °F 59.0 °F 94% 30.26 in 1.2 mi NE 4.6 mph - N/A   Overcast
12:19 AM 60.8 °F 59.0 °F 94% 30.26 in 1.0 mi NNE 8.1 mph - N/A   Overcast
12:29 AM 60.8 °F 59.0 °F 94% 30.26 in 1.2 mi NNE 5.8 mph - N/A   Overcast
1:46 AM 60.8 °F 59.0 °F 94% 30.26 in 1.0 mi NE 3.5 mph - N/A   Overcast
1:56 AM 61.0 °F 59.0 °F 93% 30.26 in 1.2 mi NE 5.8 mph - N/A   Overcast
2:06 AM 60.8 °F 59.0 °F 94% 30.26 in 1.0 mi NE 6.9 mph - N/A   Overcast
2:14 AM 60.8 °F 59.0 °F 94% 30.26 in 0.8 mi NNE 8.1 mph - N/A   Mist
2:41 AM 60.8 °F 57.2 °F 88% 30.25 in 1.0 mi NNE 8.1 mph - N/A   Mist
2:56 AM 60.1 °F 57.9 °F 93% 30.25 in 1.0 mi NE 5.8 mph - N/A   Overcast
3:16 AM 60.8 °F 59.0 °F 94% 30.24 in 0.8 mi NE 6.9 mph - N/A   Mist
3:56 AM 60.1 °F 57.9 °F 93% 30.24 in 0.8 mi NNE 6.9 mph - N/A   Mist
4:09 AM 60.8 °F 57.2 °F 88% 30.24 in 1.0 mi NNE 6.9 mph - N/A   Mist
4:19 AM 59.0 °F 57.2 °F 94% 30.23 in 1.5 mi NNE 8.1 mph - N/A   Overcast
4:56 AM 59.0 °F 57.9 °F 96% 30.25 in 0.8 mi North 6.9 mph - N/A   Mist
5:56 AM 59.0 °F 57.9 °F 96% 30.25 in 0.8 mi NE 4.6 mph - N/A   Mist
6:42 AM 59.0 °F 57.2 °F 94% 30.26 in 1.0 mi NNE 9.2 mph - N/A   Mist
6:49 AM 59.0 °F 57.2 °F 94% 30.26 in 0.8 mi NNE 8.1 mph - N/A   Mist
6:56 AM 59.0 °F 57.9 °F 96% 30.26 in 0.8 mi NNE 8.1 mph - N/A   Mist
7:56 AM 59.0 °F 57.9 °F 96% 30.27 in 0.5 mi NNE 8.1 mph - N/A Fog Fog
8:56 AM 60.1 °F 59.0 °F 96% 30.28 in 0.5 mi North 6.9 mph - N/A Fog Fog
9:17 AM 60.8 °F 59.0 °F 94% 30.28 in 1.2 mi North 5.8 mph - N/A   Overcast
9:46 AM 60.8 °F 60.8 °F 100% 30.29 in 2.0 mi NNE 3.5 mph - N/A   Overcast
9:56 AM 61.0 °F 60.1 °F 97% 30.29 in 2.0 mi NE 3.5 mph - N/A   Overcast
10:33 AM 62.6 °F 60.8 °F 94% 30.30 in 3.0 mi North 4.6 mph - N/A   Overcast
10:56 AM 62.1 °F 60.1 °F 93% 30.31 in 6.0 mi NNW 4.6 mph - N/A   Overcast
11:14 AM 62.6 °F 60.8 °F 94% 30.30 in 9.0 mi Calm Calm - N/A   Overcast
11:56 AM 63.0 °F 60.1 °F 90% 30.30 in 9.0 mi NNW 4.6 mph - N/A   Overcast
12:56 PM 64.9 °F 60.1 °F 84% 30.30 in 9.0 mi NW 5.8 mph - N/A   Overcast
1:13 PM 64.4 °F 60.8 °F 88% 30.28 in 10.0 mi NW 5.8 mph - N/A   Overcast
1:56 PM 66.9 °F 61.0 °F 81% 30.28 in 10.0 mi NNW 3.5 mph - N/A   Overcast
2:16 PM 66.2 °F 60.8 °F 83% 30.27 in 10.0 mi Calm Calm - N/A   Overcast
3:56 PM 72.0 °F 61.0 °F 68% 30.22 in 10.0 mi NNW 5.8 mph - N/A   Clear
4:56 PM 71.1 °F 61.0 °F 70% 30.21 in 10.0 mi SSW 5.8 mph - N/A   Clear
5:56 PM 69.1 °F 61.0 °F 75% 30.20 in 10.0 mi SSW 4.6 mph - N/A   Clear
6:56 PM 64.9 °F 59.0 °F 81% 30.21 in 9.0 mi Calm Calm - N/A   Partly Cloudy
7:56 PM 64.0 °F 60.1 °F 87% 30.21 in 9.0 mi Calm Calm - N/A   Mostly Cloudy
8:56 PM 62.1 °F 59.0 °F 90% 30.22 in 8.0 mi Calm Calm - N/A   Clear
9:56 PM 61.0 °F 59.0 °F 93% 30.22 in 7.0 mi Calm Calm - N/A   Clear
10:56 PM 61.0 °F 57.9 °F 90% 30.22 in 6.0 mi Calm Calm - N/A   Clear